{"data":{"norad_id":48237,"epoch":"2026-09-19T23:21:31.257216Z","epoch_age_seconds":63632,"freshness":"FRESH","line1":"1 48237U 21031AD  26262.97327844 -.00000150  00000+0 -43893-3 0  9990","line2":"2 48237  87.8896 270.8032 0002043  85.8429 274.2934 13.14504650260816","mean_motion":13.1450465,"eccentricity":0.0002043,"inclination_deg":87.8896,"raan_deg":270.8032,"arg_perigee_deg":85.8429,"mean_anomaly_deg":274.2934,"bstar":-0.00043893,"rev_number":26081,"period_min":109.54696889052,"perigee_km":1204.2338441213,"apogee_km":1207.332633931,"semimajor_km":7583.9202390262,"source":"CELESTRAK","updated_at":"2026-09-20T09:00:44.597965Z"}}